weather.gov     
National Weather Service

Regional Weather Roundup
NWS Homepage
This page is being discontinued on March 12, 2014.
The same data is available at this site. Please update your bookmarks.
Thank you, and we apologize for the inconvenience.
Please send an email to SR-SRH.Webmaster@noaa.gov with any concerns.


Current Version
Previous Version:    01  02  03  04  05  06  07  08  09  10  11  12  13  14  15  16  17  18  19  20  21  22  23  24  25  26  
[Printable]
036
ASUS42 KTBW 010710
RWRFL
FLORIDA REGIONAL WEATHER ROUNDUP
NATIONAL WEATHER SERVICE TAMPA BAY RUSKIN FL
300 AM EDT SAT NOV 01 2014

NOTE: "FAIR" INDICATES FEW OR NO CLOUDS BELOW 12,000 FEET WITH NO
SIGNIFICANT WEATHER AND/OR OBSTRUCTIONS TO VISIBILITY.


FLZ001>010-012>015-112-114-115-010800-
PANHANDLE FLORIDA

CITY           SKY/WX    TMP DP  RH WIND       PRES   REMARKS
PENSACOLA      CLEAR     52  38  58 N17G31    30.11R
PENSACOLA NAS  CLEAR     52  38  58 N15G28    30.11R
MILTON NAS     CLEAR     50  33  52 N9G25     30.13R
CRESTVIEW      CLEAR     50  34  54 N15G24    30.12R WCI  45
DUKE FIELD     FAIR      51  37  57 N20G25    30.09R
VALPARAISO     PTCLDY    53  36  54 N18G25    30.08R
MARY ESTHER    PTCLDY    53  34  48 N10       30.08R
TRI COUNTY     FAIR      49  36  61 N16G26    30.09R WCI  43
PANAMA CITY    FAIR      54  41  61 NW14G23   30.04R
TYNDALL AFB    PTCLDY    55  43  62 N17G31    30.04R
APALACHICOLA   CLEAR     58  45  62 N16G25    30.00R

STATION/POSITION SKY/WX   TEMP    WIND        PRES    WAVE   SWELL
                          AIR SEA DIR/SP/G            HT/PER HT/PER
                          (F)     (DEG/KT/KT) (MB)    (FT/S) (FT/S)
30.1N   87.6W              58 76  340/ 27/ 35 1018.9R   5/ 5
29.2N   88.2W              62 78  360/ 31/ 35 1019.2R   8/ 7
28.8N   86.0W              68 78  340/ 25/ 31 1015.4R   9/ 7
PANAMA CITY BEAC           55 73  340/ 13/ 19 1017.3S
CAPE SAN BLAS    NOT AVBL
TOWER C                    60     340/ 28/ 30 1014.6R
28.5N   84.5W              70 79  340/ 25/ 31 1013.5F   5/ 6

$$
FLZ011-016>038-118-127-128-134-139-239-010800-
NORTH FLORIDA

CITY           SKY/WX    TMP DP  RH WIND       PRES   REMARKS
MARIANNA       MOCLDY    49  36  61 N24G31    30.05R WCI  41
TALLAHASSEE    MOCLDY    57  44  62 NW15G22   29.98R
PERRY          CLEAR     53  47  80 NW8       29.96R
CROSS CITY       N/A     53  47  79 NW6       29.92R
LAKE CITY      FAIR      54  45  71 NW7       29.89S
GAINESVILLE    CLEAR     52  45  77 W7        29.89R
MAYPORT NAS    PTCLDY    60  46  59 VRB6      29.85S
JACKSONVILLE   PTCLDY    54  46  74 W8        29.85S
JAX NAS        PTCLDY    61  43  51 W8        29.86F
JAX CRAIG      PTCLDY    59  44  57 NW13      29.85F
JAX CECIL      CLEAR     52  45  76 W3        29.87S
FERNANDINA BEA FAIR      61  46  59 W10       29.83S
ST AUGUSTINE   PTCLDY    56  48  74 W6        29.86F

STATION/POSITION SKY/WX   TEMP    WIND        PRES    WAVE   SWELL
                          AIR SEA DIR/SP/G            HT/PER HT/PER
                          (F)     (DEG/KT/KT) (MB)    (FT/S) (FT/S)
SHELL POINT                58     330/  9/ 12   N/A
KEATON BEACH               57     330/ 13/ 20 1014.1R
CEDAR KEY                  61     350/  7/ 12 1013.4R
FERNANDINA                 59 74  270/ 10/ 13   N/A
30.7N   81.3W                 75                N/A     3/ 4
MAYPORT                    60 76  320/ 11/ 14   N/A
31.4N   80.9W              62 74  310/ 21/ 27 1008.6S   4/ 4   2/ 8
ST AUGUSTINE               57     280/  6/  8 1011.5S

$$
FLZ040-043>046-052-053-057-058-063-144-010800-
INTERIOR CENTRAL FLORIDA

CITY           SKY/WX    TMP DP  RH WIND       PRES   REMARKS
OCALA          CLEAR     50  43  76 NW7       29.89S
THE VILLAGES     N/A     54  46  76 CALM      29.79S
LEESBURG       CLEAR     59  49  69 W5        29.88F
SANFORD        CLEAR     58  48  69 W8        29.88S
ORLANDO EXEC   CLEAR     61  50  67 W7        29.89S
ORLANDO INTL   CLEAR     57  51  80 W5        29.90S
WINTER HAVEN   CLEAR     60  52  74 W5        29.91F
LAKELAND       PTCLDY    52  50  93 CALM      29.91S
BARTOW         FAIR      55  52  88 CALM      29.91F
OKEECHOBEE       N/A    N/A N/A N/A MISG        N/A

$$
FLZ041-047-054-059-064-141-147-010800-
EAST CENTRAL FLORIDA

CITY           SKY/WX    TMP DP  RH WIND       PRES   REMARKS
DAYTONA BEACH  CLEAR     53  49  86 W6        29.87S
DELAND         SUNNY     55  48  76 SW5       29.88F
JFK SPACE CTR  CLEAR     60  51  73 W6        29.87F
CAPE CANAVERAL CLEAR     62  52  69 NW12      29.87S
PATRICK AFB    CLEAR     62  53  71 W14       29.88S
MELBOURNE      CLEAR     57  52  83 W8        29.88S
VERO BEACH     CLEAR     54  50  86 W8        29.89S
FT PIERCE      CLEAR     55  51  86 W7        29.89S
STUART         CLEAR     59  50  72 W8        29.90F

STATION/POSITION SKY/WX   TEMP    WIND        PRES    WAVE   SWELL
                          AIR SEA DIR/SP/G            HT/PER HT/PER
                          (F)     (DEG/KT/KT) (MB)    (FT/S) (FT/S)
28.5N   80.2W              71 81  300/ 19/ 25 1010.6S
28.9N   78.5W              74 82  280/ 14/ 19 1008.6F   4/ 6   3/ 6
TRIDENT PIER               64 78  290/ 11/ 14 1011.1S
28.4N   80.5W                 77                N/A     2/ 5
27.6N   80.2W                 79                N/A     3/ 5

$$
FLZ050-056-061-142-242-148-248-149-249-151-251-155-255-
160-260-010800-
WEST CENTRAL FLORIDA

CITY           SKY/WX    TMP DP  RH WIND       PRES   REMARKS
CRYSTAL RIVER  LGT RAIN  59  50  72 NW6       29.91R
INVERNESS      PTSUNNY   50  46  87 CALM      29.90S
BROOKSVILLE    CLOUDY    52  50  93 CALM      29.91F
ZEPHYRHILLS    FAIR      48  46  93 CALM      29.91F
CLEARWATER     MOCLDY    66  49  54 W7        29.91S
TAMPA INTL     PTCLDY    67  49  52 W6        29.91F
TAMPA EXEC     PTCLDY    55  54  94 CALM      29.91F
PLANT CITY     PTCLDY    57  57 100 CALM      29.92F
MACDILL AFB    CLEAR     66  53  62 NW7       29.91F
ST PETERSBURG  CLEAR     70  48  45 VRB5      29.90S
SARASOTA       PTCLDY    69  49  48 NW10      29.90F
VENICE           N/A     72  50  46 NW15      29.92F

STATION/POSITION SKY/WX   TEMP    WIND        PRES    WAVE   SWELL
                          AIR SEA DIR/SP/G            HT/PER HT/PER
                          (F)     (DEG/KT/KT) (MB)    (FT/S) (FT/S)
CEDAR KEY                  61     350/  7/ 12 1013.4R
28.5N   84.5W              70 79  340/ 25/ 31 1013.5F   5/ 6
27.3N   84.3W                 80                N/A     5/ 6
CLEARWATER BEACH           72 74  290/ 16/ 18 1012.3
MIDDLE TAMPA BAY           72     330/ 15/ 16 1012.8F
VENICE                     73 76  290/ 19/ 21 1012.6F

$$
FLZ066-069-070-075>078-162-262-165-265-010800-
SOUTHWEST FLORIDA AND KEYS

CITY           SKY/WX    TMP DP  RH WIND       PRES   REMARKS
PUNTA GORDA    CLEAR     63  54  72 NW5       29.94S
FT MYERS       CLEAR     64  54  69 N3        29.92S
SOUTHWEST INTL CLEAR     63  53  70 CALM      29.93S
NAPLES         CLEAR     67  55  65 N6        29.93S
MARCO ISLAND   SUNNY     64  55  72 N6        29.92F
MARATHON       PTCLDY    74  61  63 NW14G21   29.93S
KEY WEST NAS   LGT RAIN  75  57  53 NW16      29.94S
KEY WEST INTL  CLEAR     75  61  61 NW12      29.94S

STATION/POSITION SKY/WX   TEMP    WIND        PRES    WAVE   SWELL
                          AIR SEA DIR/SP/G            HT/PER HT/PER
                          (F)     (DEG/KT/KT) (MB)    (FT/S) (FT/S)
VENICE                     73 76  290/ 19/ 21 1012.6F
NAPLES                     68 81   30/  6/  9 1013.9S
26.0N   85.6W              75 80  330/ 16/ 19 1016.1F   5/ 6
DRY TORTUGAS               75     330/ 17/ 20 1014.6S
NW FL BAY                  75     340/ 14/ 17 1013.6R
SAND KEY                   75     330/ 17/ 20 1013.9F
SOMBRERO KEY               75     330/ 15/ 16 1014.0S
LONG KEY                   73 79  350/ 15/ 18 1014.0S
MOLASSES REEF              70 81  320/ 20/ 23 1012.8S

$$
FLZ067-068-071>074-168-172>174-010800-
SOUTHEAST FLORIDA

CITY           SKY/WX    TMP DP  RH WIND       PRES   REMARKS
W PALM BEACH   CLEAR     61  53  75 NW10      29.89R
FT LAUDER-EXEC CLEAR     63  52  67 W8        29.90S
FT LAUDERDALE  CLEAR     66  52  60 NW10      29.90S
POMPANO BEACH  CLEAR     63  52  67 W10       29.90S
PEMBROKE PINES CLEAR     63  52  67 NW9       29.92S
OPA LOCKA      CLEAR     65  53  65 NW8       29.92S
MIAMI          CLEAR     66  52  60 NW10      29.92S
WEST KENDALL   CLEAR     62  56  80 W6        29.92S
HOMESTEAD      CLEAR     63  55  77 W8        29.92S

STATION/POSITION SKY/WX   TEMP    WIND        PRES    WAVE   SWELL
                          AIR SEA DIR/SP/G            HT/PER HT/PER
                          (F)     (DEG/KT/KT) (MB)    (FT/S) (FT/S)
PORT EVERGLADES            66     290/ 13/ 19 1012.1
VIRGINIA KEY               67 79  310/  8/ 12 1013.1S
LAKE WORTH                 64 80  300/ 10/ 13 1011.8S
FOWEY ROCKS                69 78  310/ 21/ 24 1012.9F
SETTLEMENT POINT           73     300/ 22/ 25 1011.1F

$$





U.S. Dept. of Commerce
NOAA National Weather Service
1325 East West Highway
Silver Spring, MD 20910
E-mail: w-nws.webmaster@noaa.gov
Page last modified: May 16, 2007
NATIONAL WEATHER SERVICE: for Safety, for Work, for Fun - FOR LIFE